Location: Champs
(48.8539°N, 2.6040°E)
Time: 03:57:27
(UTC+00:00)

Cosmos 923 Rocket - Pass Details

Date: 26 October 2021
Orbit: 757 x 786 km, 74.0° (Epoch: 30 November)

Event Time Altitude Azimuth Distance (km) Brightness Sun altitude
Rises 04:45:02 0° 201° (SSW) 3,205 7.0 -17.3°
Reaches altitude 10° 04:47:23 10° 202° (SSW) 2,282 6.2 -17.0°
Maximum altitude 04:52:34 89° 287° (WNW) 765 3.9 -16.1°
Drops below altitude 10° 04:57:48 10° 23° (NNE) 2,300 6.7 -15.2°
Sets 05:00:11 0° 24° (NNE) 3,232 7.5 -14.9°
